This demonstration page uses our WeatherBlox Daily Observations layout. Learn more.

Left ArrowRight Arrow

41.86663, -103.66717

Hourly Observations for August 14, 2018

Temp ( °F °C ) Dew Point ( °F °C ) Humidity (%) Winds ( mph kmh ) Pressure ( in mb ) Visibility ( mi km ) Precip ( " mm )
12:53 am 00:53 Clear 65 18.3 65 18.3 100 100 ENE 7 11 29.93 1014 10 16 0.00 0.00
1:53 am 01:53 Clear 63 17.2 63 17.2 100 100 NNE 7 11 29.92 1013 10 16 0.00 0.00
2:53 am 02:53 Clear 63 17.2 63 17.2 100 100 NNE 8 13 29.91 1013 10 16 0.00 0.00
3:53 am 03:53 Clear 63 17.2 63 17.2 100 100 NNE 8 13 29.91 1013 10 16 0.00 0.00
4:53 am 04:53 Clear 60 15.6 57 13.9 90 90 NNE 10 17 29.92 1013 10 16 0.00 0.00
5:53 am 05:53 Clear 58 14.4 55 12.8 90 90 Calm 29.93 1014 10 16 0.00 0.00
6:53 am 06:53 Sunny 59 15 55 12.8 87 87 Calm 29.96 1015 9 14 0.00 0.00
7:53 am 07:53 Mostly Sunny 62 16.7 55 12.8 78 78 ENE 3 6 29.99 1016 8 13 0.00 0.00
8:09 am 08:09 Mostly Cloudy 63 17.2 56 13.3 78 78 E 9 15 29.97 1015 9 14 0.00 0.00
8:53 am 08:53 Cloudy 65 18.3 56 13.3 73 73 ENE 10 17 30.01 1016 8 13 0.00 0.00
9:53 am 09:53 Cloudy 69 20.6 57 13.9 66 66 E 9 15 30.00 1016 9 14 0.00 0.00
10:12 am 10:12 Partly Cloudy 70 21 57 14 64 64 ESE 7 11 29.94 1014 9 14 0.00 0.00
10:48 am 10:48 Mostly Cloudy 72 22 57 14 61 61 ENE 5 7 29.91 1013 9 14 0.00 0.00
10:53 am 10:53 Partly Cloudy 72 22.2 59 15 64 64 NE 6 9 30.00 1016 9 14 0.00 0.00
11:53 am 11:53 Sunny 76 24.4 60 15.6 58 58 VRB 5 7 29.99 1016 10 16 0.00 0.00
12:53 pm 12:53 Sunny 77 25 61 16.1 58 58 Calm 29.98 1015 10 16 0.00 0.00
1:53 pm 13:53 Mostly Cloudy 80 26.7 60 15.6 51 51 undefined N/A 29.95 1014 10 16 0.00 0.00
2:53 pm 14:53 Mostly Sunny 81 27.2 61 16.1 51 51 ESE 10 17 29.94 1014 10 16 0.00 0.00
3:53 pm 15:53 Sunny 75 23.9 60 15.6 60 60 ENE 17 28 29.95 1014 10 16 0.00 0.00
4:53 pm 16:53 Sunny 73 22.8 59 15 62 62 E 22 35 29.92 1013 10 16 0.00 0.00
5:53 pm 17:53 Sunny 71 21.7 58 14.4 63 63 E 15 24 29.90 1013 10 16 0.00 0.00
6:53 pm 18:53 Sunny 72 22.2 59 15 64 64 E 9 15 29.92 1013 10 16 0.00 0.00
7:53 pm 19:53 Sunny 67 19.4 59 15 76 76 WNW 7 11 29.98 1015 10 16 0.00 0.00
8:53 pm 20:53 Clear 68 20 59 15 73 73 SE 12 19 29.90 1013 10 16 0.00 0.00
9:53 pm 21:53 Clear 66 18.9 59 15 78 78 ESE 7 11 29.92 1013 10 16 0.00 0.00
10:53 pm 22:53 Clear 65 18.3 60 15.6 84 84 E 8 13 29.94 1014 10 16 0.00 0.00
11:53 pm 23:53 Clear 63 17.2 60 15.6 90 90 E 10 17 29.92 1013 10 16 0.00 0.03

Powered by AerisWeather